SL-12 R/B(2), 23683

Orbit data source: Space-Track

SL-12 R/B(2), 23683 is space debris in GEO originally from a launch on Wed, 11 Oct 1995 UTC launched from the Tyuratam Missile And Space Complex (TTMTR). Debris objects in space refer to the collection of defunct objects orbiting the Earth. Examples of debris include non-operational satellites, rocket bodies, and fragments generated from explosions, collisions, or faulty payload assembly.

Not visible in the next 10 days
Identifier
23683, 1995-054D
Orbit
GEO
Country
Flag of CISCIS
Related business
Manufacturer
RKKE
Mission
Spacecraft
Bus & Motor
BLOK DM, Unknown motor
Mass
2,440 kg wet, 2,440 kg dry
Launch date (UTC)
1995-10-11 (31 years ago)
Launch vehicle
Unknown
Launch site
Tyuratam Missile And Space Complex (TTMTR)
Object type
Payload
Rocket body
Debris
Shape & HBR
Cyl, 3.1 m
Radar Cross Section
23.597 m², Large (>1 m²)

Expand to show TLE details & history
Last TLE update: 6 hours ago

TLE from 6 hours ago
0 SL-12 R/B(2)
1 23683U 95054D   26227.93346332  .00000046  00000-0  00000-0 0  9997
2 23683  15.0049 358.5834 0018480 105.2260 253.4877  1.00168752112961
Epoch: 2026-08-15T22:24Z
TLE epoch observation values (Epoch: 2026-08-15T22:24:11.230Z)
Latitude
-0.39451°
Longitude
56.75821°
Altitude
35,837.808 km
Speed
3.072 km/s
True Right ascension
23h 48m 34s
True Declination
0° 23' 39"
Sunlit
Object was in daylight at epoch
Visualization orbit readout
Latitude
Unknown
Longitude
Unknown
Altitude
Unknown
Speed
Unknown
Apparent Right ascension
Unknown
Apparent Declination
Unknown
Sunlit
N/A
Visualization observer readout
Local Sidereal Time
19:28:34
Azimuth
Unknown
Elevation
Unknown
Doppler factor
Unknown
Orbital elements
Apogee altitude
35,894.444 km
Perigee altitude
35,738.493 km
Semi-major axis
42,194.605 km
Eccentricity
0.00185
Inclination
15.0049°
RAAN
358.5834°
Arg. of periapsis
105.226°
True anomaly
253.2848°
Mean anomaly
253.4877°
Eccentric anomaly
253.38624°
Mean motion
0.25041 °/min
Orbital period
1,437.62 mins
BSTAR
0
Loading maneuver chart data...
Computing Atmospheric mass density...
Loading historical data...
Loading historical data...
Loading historical data...
Loading historical data...
Loading historical data...
Loading historical data...
Loading historical data...

Documentation

Showing up to 5 results
|